Weather History for Meridian NAS, MS

Change the Weather History Date:

Monday, December 31, 2012

  Actual Average Record
Temperature  
Mean Temperature 42 °F -  
Max Temperature 53 °F 54 °F 72 °F (1996)
Min Temperature 30 °F 36 °F 27 °F (1997)
Degree Days  
Heating Degree Days 24    
Moisture  
Dew Point 36 °F    
Average Humidity 78    
Maximum Humidity 92    
Minimum Humidity 58    
Precipitation  
Precipitation 0.00 in - - ()
Sea Level Pressure  
Sea Level Pressure 30.28 in    
Wind  
Wind Speed 2 mph (SE)    
Max Wind Speed 8 mph    
Max Gust Speed -    
Visibility 10 miles    
Events      
Averages and records for this station are not official NWS values.
T = Trace of Precipitation, MM = Missing Value Source: NWS Daily Summary

Daily Weather History Graph

Daily Weather History Graph

Search for Another Location

Airport:

Trip Planner

Search our weather history database for the weather conditions in past years. The results will help you decide how hot, cold, wet, or windy it might be!

Date:

Astronomy

Dec. 31, 2012 Rise Set
Actual Time 6:55 AM CST 4:59 PM CST
Civil Twilight 6:28 AM CST 5:26 PM CST
Nautical Twilight 5:58 AM CST 5:56 PM CST
Astronomical Twilight 5:28 AM CST 6:26 PM CST
Moon 8:17 PM CST (12/31) 8:48 AM CST (12/31)
Length of Visible Light 10h 57m
Length of Day
10h 03m
Waning Gibbous, 90% of the Moon is Illuminated
Dec 31
Waning Gibbous
Jan 4
Last Quarter
Jan 11
New
Jan 18
First Quarter
Jan 26
Full

Hourly Weather History & Observations

Time (CST) Temp. Windchill Dew Point Humidity Pressure Visibility Wind Dir Wind Speed Gust Speed Precip Events Conditions
12:56 AM 32.0 °F - 28.9 °F 88% 30.41 in 10.0 mi Calm Calm - N/A   Clear
1:56 AM 32.0 °F - 28.9 °F 88% 30.40 in 10.0 mi Calm Calm - N/A   Clear
2:56 AM 30.0 °F - 28.0 °F 92% 30.40 in 10.0 mi Calm Calm - N/A   Clear
3:56 AM 30.9 °F - 28.0 °F 89% 30.39 in 9.0 mi Calm Calm - N/A   Clear
4:56 AM 30.0 °F 26.5 °F 28.0 °F 92% 30.38 in 9.0 mi East 3.5 mph - N/A   Clear
5:56 AM 30.0 °F - 28.0 °F 92% 30.38 in 10.0 mi Calm Calm - N/A   Mostly Cloudy
6:56 AM 30.0 °F - 28.0 °F 92% 30.38 in 8.0 mi Calm Calm - N/A   Mostly Cloudy
7:56 AM 33.1 °F - 30.0 °F 89% 30.40 in 9.0 mi Calm Calm - N/A   Mostly Cloudy
8:56 AM 37.0 °F 33.3 °F 30.9 °F 79% 30.38 in 10.0 mi SE 4.6 mph - N/A   Overcast
9:56 AM 41.0 °F 35.8 °F 28.9 °F 62% 30.38 in 10.0 mi SE 8.1 mph - N/A   Overcast
10:56 AM 45.0 °F 43.5 °F 30.9 °F 58% 30.35 in 10.0 mi SE 3.5 mph - N/A   Overcast
11:56 AM 46.0 °F 43.9 °F 32.0 °F 58% 30.31 in 10.0 mi ESE 4.6 mph - N/A   Overcast
12:56 PM 48.0 °F - 34.0 °F 58% 30.26 in 10.0 mi SE 6.9 mph - N/A   Overcast
1:56 PM 50.0 °F - 37.0 °F 61% 30.23 in 10.0 mi SE 4.6 mph - N/A   Overcast
2:56 PM 51.1 °F - 37.9 °F 61% 30.23 in 10.0 mi ESE 4.6 mph - N/A   Overcast
3:56 PM 51.1 °F - 39.0 °F 63% 30.23 in 10.0 mi East 4.6 mph - N/A   Overcast
4:56 PM 48.9 °F - 41.0 °F 74% 30.19 in 10.0 mi ESE 6.9 mph - N/A   Overcast
5:56 PM 48.0 °F - 41.0 °F 77% 30.20 in 10.0 mi East 4.6 mph - N/A   Mostly Cloudy
6:56 PM 48.9 °F - 42.1 °F 77% 30.19 in 10.0 mi Calm Calm - N/A   Partly Cloudy
7:56 PM 50.0 °F - 44.1 °F 80% 30.17 in 10.0 mi SSE 3.5 mph - N/A   Overcast
8:56 PM 51.1 °F - 46.0 °F 83% 30.15 in 10.0 mi SSE 4.6 mph - N/A   Clear
9:56 PM 52.0 °F - 48.0 °F 86% 30.12 in 10.0 mi SSE 6.9 mph - N/A   Mostly Cloudy
10:56 PM 53.1 °F - 48.9 °F 86% 30.12 in 10.0 mi Variable 3.5 mph - N/A   Partly Cloudy
11:56 PM 53.1 °F - 48.9 °F 86% 30.09 in 10.0 mi SE 5.8 mph - N/A   Partly Cloudy